TimeEDT,TemperatureF,Dew PointF,Humidity,Sea Level PressureIn,VisibilityMPH,Wind Direction,Wind SpeedMPH,Gust SpeedMPH,PrecipitationIn,Events,Conditions,WindDirDegrees,DateUTC
12:15 AM,53.8,48.2,81,30.18,10.0,Calm,Calm,-,N/A,,Clear,0,2013-05-26 04:15:00
12:35 AM,53.6,48.2,82,30.18,10.0,Calm,Calm,-,N/A,,Clear,0,2013-05-26 04:35:00
12:55 AM,53.8,47.5,79,30.18,10.0,Calm,Calm,-,N/A,,Clear,0,2013-05-26 04:55:00
1:15 AM,54.5,47.3,77,30.17,10.0,Calm,Calm,-,N/A,,Clear,0,2013-05-26 05:15:00
1:35 AM,53.1,46.9,80,30.17,10.0,Calm,Calm,-,N/A,,Clear,0,2013-05-26 05:35:00
1:55 AM,52.9,47.3,81,30.17,10.0,Calm,Calm,-,N/A,,Clear,0,2013-05-26 05:55:00
2:15 AM,52.0,46.9,83,30.16,10.0,Calm,Calm,-,N/A,,Clear,0,2013-05-26 06:15:00
2:35 AM,51.1,47.3,87,30.16,10.0,Calm,Calm,-,N/A,,Clear,0,2013-05-26 06:35:00
2:55 AM,51.8,48.0,87,30.16,10.0,Calm,Calm,-,N/A,,Clear,0,2013-05-26 06:55:00
3:15 AM,50.5,47.5,89,30.17,10.0,Calm,Calm,-,N/A,,Clear,0,2013-05-26 07:15:00
3:35 AM,49.8,47.3,91,30.17,10.0,Calm,Calm,-,N/A,,Clear,0,2013-05-26 07:35:00
3:55 AM,50.4,47.3,89,30.17,10.0,Calm,Calm,-,N/A,,Clear,0,2013-05-26 07:55:00
4:15 AM,50.9,47.7,89,30.18,10.0,Calm,Calm,-,N/A,,Clear,0,2013-05-26 08:15:00
4:35 AM,49.8,47.7,92,30.18,10.0,Calm,Calm,-,N/A,,Clear,0,2013-05-26 08:35:00
4:55 AM,49.3,47.3,93,30.18,10.0,Calm,Calm,-,N/A,,Clear,0,2013-05-26 08:55:00
5:15 AM,50.2,47.7,91,30.19,10.0,Calm,Calm,-,N/A,,Clear,0,2013-05-26 09:15:00
5:35 AM,50.2,47.5,90,30.19,10.0,North,3.5,-,N/A,,Clear,10,2013-05-26 09:35:00
5:55 AM,53.1,46.0,77,30.19,10.0,North,4.6,-,N/A,,Clear,10,2013-05-26 09:55:00
6:15 AM,58.1,45.7,63,30.20,10.0,North,4.6,-,N/A,,Clear,360,2013-05-26 10:15:00
6:35 AM,58.8,45.3,61,30.21,10.0,North,4.6,-,N/A,,Clear,10,2013-05-26 10:35:00
6:55 AM,59.0,44.2,58,30.21,10.0,NNE,3.5,-,N/A,,Clear,20,2013-05-26 10:55:00
7:15 AM,60.4,45.9,59,30.22,10.0,North,4.6,-,N/A,,Clear,10,2013-05-26 11:15:00
7:35 AM,61.3,45.7,56,30.22,10.0,North,6.9,-,N/A,,Clear,360,2013-05-26 11:35:00
7:55 AM,61.9,45.1,54,30.23,10.0,North,10.4,-,N/A,,Clear,10,2013-05-26 11:55:00
8:15 AM,62.8,43.3,49,30.23,10.0,North,9.2,16.1,N/A,,Clear,10,2013-05-26 12:15:00
8:35 AM,63.9,42.6,46,30.24,10.0,North,10.4,-,N/A,,Clear,10,2013-05-26 12:35:00
8:55 AM,64.4,39.6,40,30.24,10.0,North,10.4,17.3,N/A,,Clear,360,2013-05-26 12:55:00
9:15 AM,64.8,39.9,40,30.24,10.0,North,11.5,-,N/A,,Clear,360,2013-05-26 13:15:00
9:35 AM,65.1,40.1,40,30.24,10.0,NNE,10.4,-,N/A,,Clear,30,2013-05-26 13:35:00
9:55 AM,65.7,41.7,42,30.24,10.0,NNE,10.4,-,N/A,,Clear,20,2013-05-26 13:55:00
10:15 AM,65.8,42.8,43,30.24,10.0,NNE,10.4,-,N/A,,Clear,20,2013-05-26 14:15:00
10:35 AM,66.2,43.5,44,30.24,10.0,NE,10.4,-,N/A,,Clear,40,2013-05-26 14:35:00
10:55 AM,66.2,43.7,44,30.24,10.0,North,8.1,-,N/A,,Clear,10,2013-05-26 14:55:00
11:15 AM,67.3,44.8,44,30.24,10.0,NNE,6.9,-,N/A,,Clear,20,2013-05-26 15:15:00
11:35 AM,67.5,44.8,44,30.24,10.0,North,6.9,-,N/A,,Clear,10,2013-05-26 15:35:00
11:55 AM,67.3,44.6,44,30.24,10.0,North,4.6,-,N/A,,Clear,360,2013-05-26 15:55:00
12:15 PM,67.5,44.8,44,30.23,10.0,NE,8.1,-,N/A,,Clear,40,2013-05-26 16:15:00
12:35 PM,68.4,45.7,44,30.23,10.0,North,3.5,-,N/A,,Clear,10,2013-05-26 16:35:00
12:55 PM,69.3,45.1,42,30.23,10.0,North,5.8,-,N/A,,Clear,10,2013-05-26 16:55:00
1:15 PM,68.7,43.9,41,30.22,10.0,North,3.5,-,N/A,,Clear,360,2013-05-26 17:15:00
1:35 PM,68.2,45.0,43,30.22,10.0,NE,6.9,-,N/A,,Clear,50,2013-05-26 17:35:00
1:55 PM,69.3,41.9,37,30.21,10.0,NE,4.6,-,N/A,,Clear,50,2013-05-26 17:55:00
2:15 PM,69.1,47.3,46,30.21,10.0,NE,8.1,-,N/A,,Clear,50,2013-05-26 18:15:00
2:35 PM,68.4,48.2,48,30.20,10.0,ENE,4.6,-,N/A,,Clear,60,2013-05-26 18:35:00
2:55 PM,69.1,45.5,43,30.20,10.0,ENE,9.2,-,N/A,,Clear,60,2013-05-26 18:55:00
3:15 PM,69.1,47.3,46,30.19,10.0,East,8.1,-,N/A,,Clear,90,2013-05-26 19:15:00
3:35 PM,69.6,46.0,43,30.19,10.0,ENE,4.6,-,N/A,,Clear,60,2013-05-26 19:35:00
3:55 PM,68.2,48.9,50,30.18,10.0,East,6.9,-,N/A,,Clear,100,2013-05-26 19:55:00
4:15 PM,68.5,46.9,46,30.18,10.0,East,3.5,-,N/A,,Clear,90,2013-05-26 20:15:00
4:35 PM,69.6,47.5,45,30.19,10.0,South,3.5,-,N/A,,Clear,180,2013-05-26 20:35:00
4:55 PM,70.0,48.7,47,30.19,10.0,SSW,5.8,-,N/A,,Clear,200,2013-05-26 20:55:00
5:15 PM,68.5,47.8,48,30.19,10.0,ESE,6.9,-,N/A,,Clear,120,2013-05-26 21:15:00
5:35 PM,68.5,48.0,48,30.18,10.0,South,8.1,-,N/A,,Clear,190,2013-05-26 21:35:00
5:55 PM,68.7,49.5,50,30.19,10.0,South,8.1,-,N/A,,Clear,180,2013-05-26 21:55:00
6:15 PM,68.0,48.9,50,30.19,10.0,South,6.9,-,N/A,,Clear,180,2013-05-26 22:15:00
6:35 PM,68.0,48.4,49,30.18,10.0,South,8.1,-,N/A,,Clear,180,2013-05-26 22:35:00
6:55 PM,67.5,48.6,51,30.19,10.0,South,8.1,-,N/A,,Clear,190,2013-05-26 22:55:00
7:15 PM,66.4,49.3,54,30.19,10.0,South,8.1,-,N/A,,Clear,180,2013-05-26 23:15:00
7:35 PM,65.7,50.2,57,30.19,10.0,South,5.8,-,N/A,,Clear,180,2013-05-26 23:35:00
7:55 PM,64.4,50.4,60,30.20,10.0,South,4.6,-,N/A,,Clear,170,2013-05-26 23:55:00
8:15 PM,63.1,50.0,62,30.20,10.0,SSE,4.6,-,N/A,,Clear,160,2013-05-27 00:15:00
8:35 PM,62.1,50.2,65,30.21,10.0,SSE,3.5,-,N/A,,Clear,160,2013-05-27 00:35:00
8:55 PM,60.8,50.2,68,30.21,10.0,SSE,3.5,-,N/A,,Clear,150,2013-05-27 00:55:00
9:15 PM,60.8,50.0,68,30.22,10.0,SE,4.6,-,N/A,,Clear,140,2013-05-27 01:15:00
9:35 PM,61.2,50.0,67,30.23,10.0,SE,3.5,-,N/A,,Clear,140,2013-05-27 01:35:00
9:55 PM,61.0,50.4,68,30.23,10.0,SE,3.5,-,N/A,,Clear,140,2013-05-27 01:55:00
10:15 PM,60.4,50.4,69,30.23,10.0,SSE,3.5,-,N/A,,Clear,150,2013-05-27 02:15:00
10:35 PM,59.5,50.5,72,30.24,10.0,SE,3.5,-,N/A,,Clear,130,2013-05-27 02:35:00
10:55 PM,60.1,51.6,74,30.24,10.0,Calm,Calm,-,N/A,,Clear,0,2013-05-27 02:55:00
11:15 PM,59.4,51.3,75,30.24,10.0,Calm,Calm,-,N/A,,Clear,0,2013-05-27 03:15:00
11:35 PM,58.8,51.6,77,30.24,10.0,Calm,Calm,-,N/A,,Clear,0,2013-05-27 03:35:00
11:55 PM,59.2,51.8,77,30.24,10.0,Calm,Calm,-,N/A,,Clear,0,2013-05-27 03:55:00